Weather History for KSJN - March, 2014

Change the Weather History Date:

Tuesday, March 18, 2014

  Actual Average (KSOW) Record (KSOW)
Temperature  
Mean Temperature 37 °F -  
Max Temperature 52 °F 57 °F 74 °F (1967)
Min Temperature 22 °F 34 °F 14 °F (1971)
Degree Days  
Heating Degree Days 28    
Moisture  
Dew Point 1 °F    
Average Humidity 19    
Maximum Humidity 36    
Minimum Humidity 5    
Precipitation  
Precipitation 0.00 in - - ()
Sea Level Pressure  
Sea Level Pressure 29.83 in    
Wind  
Wind Speed 11 mph (WNW)    
Max Wind Speed 17 mph    
Max Gust Speed 23 mph    
Visibility 10 miles    
Events      
Averages and records for this station are not official NWS values.
T = Trace of Precipitation, MM = Missing Value Source: NWS Daily Summary

Daily Weather History Graph

Daily Weather History Graph

Search for Another Location

Airport or City:

Trip Planner

Search our weather history database for the weather conditions in past years. The results will help you decide how hot, cold, wet, or windy it might be!

Date:

Astronomy

Mar. 18, 2014 Rise Set
Actual Time 6:23 AM MST 6:27 PM MST
Civil Twilight 5:58 AM MST 6:52 PM MST
Nautical Twilight 5:29 AM MST 7:22 PM MST
Astronomical Twilight 5:00 AM MST 7:51 PM MST
Moon 8:41 PM MST (3/18) 7:20 AM MST (3/18)
Length of Visible Light 12h 54m
Length of Day
12h 03m
Waning Gibbous, 96% of the Moon is Illuminated
Mar 18
Waning Gibbous
Mar 23
Last Quarter
Mar 30
New
Apr 7
First Quarter
Apr 15
Full

Hourly Weather History & Observations

Time (MST) Temp. Windchill Dew Point Humidity Pressure Visibility Wind Dir Wind Speed Gust Speed Precip Events Conditions
12:54 AM 51.1 °F - 10.9 °F 20% 29.52 in 10.0 mi WSW 16.1 mph 23.0 mph N/A   Scattered Clouds
1:54 AM 46.0 °F 39.0 °F 12.9 °F 26% 29.58 in 10.0 mi WNW 17.3 mph - N/A   Clear
2:54 AM 43.0 °F 36.4 °F 10.9 °F 27% 29.62 in 10.0 mi WNW 12.7 mph - N/A   Clear
3:54 AM 39.0 °F 31.8 °F 12.0 °F 33% 29.66 in 10.0 mi West 11.5 mph - N/A   Clear
4:54 AM 36.0 °F 28.0 °F 10.9 °F 36% 29.72 in 10.0 mi WNW 11.5 mph - N/A   Clear
5:54 AM 34.0 °F 25.5 °F 6.1 °F 31% 29.77 in 10.0 mi NW 11.5 mph - N/A   Clear
6:54 AM 32.0 °F 23.6 °F 1.0 °F 27% 29.82 in 10.0 mi NW 10.4 mph - N/A   Clear
7:54 AM 36.0 °F 33.3 °F -0.0 °F 22% 29.85 in 10.0 mi WNW 3.5 mph - N/A   Clear
8:54 AM 39.0 °F 32.8 °F -0.9 °F 19% 29.87 in 10.0 mi NNW 9.2 mph - N/A   Clear
9:54 AM 41.0 °F 38.0 °F -4.0 °F 15% 29.87 in 10.0 mi Variable 4.6 mph - N/A   Clear
10:54 AM 43.0 °F 38.2 °F -4.0 °F 14% 29.87 in 10.0 mi West 8.1 mph - N/A   Clear
11:54 AM 46.0 °F 40.2 °F -4.0 °F 12% 29.85 in 10.0 mi NW 12.7 mph - N/A   Clear
12:54 PM 46.9 °F - -2.9 °F 13% 29.83 in 10.0 mi WNW 6.9 mph - N/A   Clear
1:54 PM 50.0 °F - -2.9 °F 11% 29.82 in 10.0 mi NW 11.5 mph 17.3 mph N/A   Clear
2:54 PM 51.1 °F - -2.9 °F 11% 29.81 in 10.0 mi NW 8.1 mph 19.6 mph N/A   Clear
3:54 PM 52.0 °F - -8.0 °F 8% 29.82 in 10.0 mi WNW 10.4 mph - N/A   Clear
4:54 PM 51.1 °F - -9.0 °F 8% 29.84 in 10.0 mi WNW 5.8 mph - N/A   Clear
5:54 PM 50.0 °F - -9.0 °F 8% 29.86 in 10.0 mi NW 13.8 mph - N/A   Clear
6:54 PM 45.0 °F - -8.0 °F 11% 29.90 in 10.0 mi Calm Calm - N/A   Clear
7:54 PM 37.0 °F 33.3 °F -4.0 °F 17% 29.94 in 10.0 mi West 4.6 mph - N/A   Clear
8:54 PM 37.0 °F - -2.0 °F 19% 29.96 in 10.0 mi Calm Calm - N/A   Clear
9:54 PM 34.0 °F 29.8 °F -0.0 °F 24% 29.98 in 10.0 mi South 4.6 mph - N/A   Clear
10:54 PM 34.0 °F 29.8 °F 5.0 °F 30% 29.98 in 10.0 mi South 4.6 mph - N/A   Clear
11:54 PM 34.0 °F 28.8 °F 7.0 °F 32% 29.98 in 10.0 mi SSE 5.8 mph - N/A   Clear